[[{"header":{"parameterUnit":"m.s-1","parameterCategory":1,"la1":30.2991,"la2":30.254,"lo1":-89.0895,"lo2":-89.0444,"dy":0.0017,"dx":0.0017,"nx":28,"ny":28,"refTime":"2023-08-31T03:00:00:Z","depth":0,"parameterNumber":2,"parameterNumberName":"U-component_of_WINDS"},"data":[0,0,0,0,0,0,0,0,0,0,0,0,0,0,0,0,0,0,0,0,0,0,0,0,0,0,0,0,0,0,0,0,0,0,0,0,0,0,0,0,0,0,0,0,0,0,0,0,0,0,0,0,0,0,0,0,0,0,0.5754,0.5754,0,0.5717,0.5717,0.5716,0.5638,0.5637,0.5635,0.5634,0.5597,0.5598,0.5598,0,0,0,0,0,0,0,0,0,0,0,0,0,0.5759,0.5759,0.5754,0.5754,0.5753,0.5717,0.5717,0.5716,0.5639,0.5637,0.5635,0.5633,0.5597,0.5597,0.5598,0,0,0,0,0,0,0,0,0,0,0,0,0,0.5743,0.5759,0.5754,0.571,0.5706,0.5717,0.5717,0.5716,0.5639,0.5637,0.5634,0.5632,0.5597,0.5597,0.5598,0.565,0,0,0.56,0.5601,0,0,0,0,0,0,0,0,0.5744,0.5743,0.5717,0.5713,0.5708,0.568,0.5705,0.5694,0.564,0.5664,0.5634,0.5631,0.5627,0.5625,0.5623,0.5648,0.5647,0.56,0.5601,0.5601,0.5601,0,0,0,0,0,0,0,0.5745,0.5744,0.5739,0.5717,0.5712,0.5692,0.5688,0.5702,0.5659,0.5662,0.5656,0.5653,0.5624,0.5622,0.5622,0.5646,0.56,0.5601,0.5602,0.5602,0.5711,0.5714,0,0,0,0,0,0,0.5752,0.5745,0.5741,0.5738,0.5721,0.5694,0.5689,0.5691,0.5659,0.5652,0.5655,0.5649,0.5622,0.5621,0.562,0.5679,0.5601,0.5602,0.5602,0.5709,0.5712,0.5714,0,0,0,0,0,0,0.5753,0.5753,0.5742,0.574,0.5737,0.5697,0.57,0.5692,0.5691,0.5653,0.5645,0.5662,0.562,0.5619,0.5643,0.5676,0.5602,0.5603,0.5706,0.571,0.5713,0.5797,0,0,0,0,0,0,0.5753,0.5753,0.5773,0.5741,0.5738,0.5766,0.5702,0.5693,0.5692,0.5684,0.5658,0.5651,0.5618,0.5642,0.5644,0.5676,0.5603,0.5703,0.5708,0.5712,0.5791,0.5803,0.5813,0,0,0,0,0,0.5754,0.5798,0.5774,0.5774,0.5761,0.5768,0.5766,0.5728,0.5695,0.5714,0.569,0.5652,0.5672,0.5645,0.5646,0.5679,0.5701,0.5706,0.5712,0.5786,0.5801,0.5813,0,0,0,0,0,0,0.5835,0.5793,0.5766,0.5801,0.5789,0.5755,0.5778,0.5744,0.5741,0.5734,0.5687,0.5681,0.5712,0.5697,0.5669,0.5727,0.568,0.5686,0.5736,0.575,0.5761,0.5765,0.5604,0,0,0,0,0,0.5857,0.5866,0.5829,0.5864,0.5858,0.582,0.5821,0.5792,0.5777,0.5772,0.575,0.5737,0.574,0.5744,0.5745,0.5787,0.5781,0.5811,0.5822,0.5831,0.5838,0.5859,0.5872,0.5733,0.5733,0.5733,0,0,0.5903,0.5881,0.589,0.5879,0.5866,0.5877,0.5816,0.583,0.5837,0.5774,0.5796,0.5779,0.5761,0.5795,0.5809,0.5784,0.5874,0.5838,0.5846,0.5847,0.5866,0.588,0.5891,0.5736,0.5736,0.5735,0,0,0.5993,0.5976,0.6004,0.5991,0.5972,0.5945,0.5952,0.5923,0.5909,0.5929,0.5882,0.589,0.5897,0.5887,0.5882,0.5966,0.5931,0.5967,0.6027,0.6048,0.6059,0.6069,0.61,0.6111,0.5974,0.5974,0.5974,0,0.6053,0.6066,0.6022,0.6039,0.6036,0.5978,0.6006,0.5996,0.5978,0.5978,0.595,0.5957,0.5941,0.5972,0.5992,0.599,0.5996,0.5972,0.6061,0.607,0.6079,0.6108,0.6119,0.5978,0.5978,0.5977,0.5977,0,0.6141,0.6152,0.6176,0.616,0.6159,0.6181,0.6141,0.6145,0.6116,0.6092,0.6114,0.6092,0.6088,0.6093,0.6064,0.6119,0.6105,0.607,0.6021,0.6097,0.6124,0.6135,0.5985,0.5983,0.5982,0.5981,0,0,0.6284,0.6241,0.6251,0.6243,0.6216,0.6224,0.6243,0.6238,0.6243,0.6232,0.6247,0.6254,0.6221,0.6216,0.6186,0.6204,0.6273,0.6167,0.6166,0.6189,0.6333,0.6361,0.6375,0.6249,0.625,0.6252,0.6335,0,0.6369,0.6399,0.6359,0.6399,0.6408,0.6352,0.6369,0.6354,0.6332,0.6337,0.6312,0.6318,0.6273,0.627,0.6286,0.6262,0.6302,0.6255,0.6264,0.6265,0.6272,0.6388,0.6418,0.6497,0.6345,0.6346,0.6348,0,0.6472,0.6466,0.6506,0.6476,0.6478,0.6494,0.6486,0.6491,0.6473,0.6456,0.645,0.6413,0.643,0.6381,0.6404,0.6373,0.6373,0.6362,0.6364,0.6365,0.6313,0.6394,0.6522,0.6534,0.6363,0.6362,0.6361,0,0.6574,0.6575,0.6599,0.6594,0.6559,0.6571,0.6558,0.6537,0.6537,0.6529,0.6529,0.6524,0.6521,0.6518,0.6481,0.6449,0.6509,0.6457,0.6496,0.6497,0.6513,0.6513,0.6644,0.651,0.651,0.651,0.651,0,0.6674,0.6702,0.6644,0.666,0.6688,0.6642,0.6671,0.6652,0.6634,0.6644,0.6595,0.6606,0.6555,0.6561,0.6532,0.6555,0.6554,0.6541,0.6534,0.6547,0.6549,0.6549,0.6543,0.6513,0.6512,0.6512,0.6511,0,0.6794,0.6757,0.678,0.6744,0.6736,0.6759,0.6729,0.6741,0.6715,0.6729,0.6729,0.6689,0.6692,0.6654,0.6651,0.6631,0.6669,0.6651,0.6675,0.667,0.6712,0.6709,0.6849,0.6866,0.672,0.6721,0.6723,0,0.6862,0.6881,0.6848,0.6851,0.6839,0.6845,0.6844,0.6798,0.6799,0.6779,0.6794,0.6794,0.6791,0.68,0.677,0.6767,0.6749,0.6798,0.6749,0.6762,0.6752,0.6752,0.6754,0.681,0.6812,0.6813,0.6814,0,0.6986,0.6966,0.6966,0.696,0.6959,0.6952,0.6942,0.6947,0.6897,0.69,0.6903,0.6901,0.6897,0.6898,0.6888,0.6874,0.6837,0.683,0.6839,0.6854,0.6868,0.6863,0.6706,0.6828,0.6826,0.6825,0.6825,0.6824,0.7083,0.7098,0.7076,0.7078,0.7064,0.7055,0.7066,0.704,0.7041,0.7034,0.7007,0.7015,0.6995,0.6979,0.6968,0.6974,0.695,0.6963,0.6966,0.6971,0.6979,0.6865,0.6971,0.6971,0.6971,0.697,0.697,0,0.7206,0.7189,0.719,0.7177,0.7178,0.7141,0.7127,0.7131,0.7138,0.7122,0.712,0.7124,0.7123,0.7093,0.7089,0.7099,0.7082,0.71,0.71,0.7097,0.7,0.6993,0.7114,0.7114,0.7114,0.7114,0.7114,0.7114,0.727,0.7294,0.7271,0.7287,0.7269,0.7277,0.7272,0.7263,0.7251,0.7257,0.7256,0.7235,0.7214,0.7208,0.7206,0.7197,0.7198,0.7223,0.7208,0.7118,0.7104,0.7091,0.7085,0.7223,0.7223,0.7305,0.7306,0.7307]},{"header":{"parameterUnit":"m.s-1","parameterCategory":1,"la1":30.2991,"la2":30.254,"lo1":-89.0895,"lo2":-89.0444,"dy":0.0017,"dx":0.0017,"nx":28,"ny":28,"refTime":"2023-08-31T03:00:00:Z","depth":0,"parameterNumber":3,"parameterNumberName":"V-component_of_WINDS"},"data":[0,0,0,0,0,0,0,0,0,0,0,0,0,0,0,0,0,0,0,0,0,0,0,0,0,0,0,0,0,0,0,0,0,0,0,0,0,0,0,0,0,0,0,0,0,0,0,0,0,0,0,0,0,0,0,0,0,0,-0.0175,-0.0177,0,-0.0394,-0.0397,-0.0399,-0.0519,-0.0519,-0.0519,-0.0519,-0.0745,-0.0751,-0.0756,0,0,0,0,0,0,0,0,0,0,0,0,0,0.0137,0.0132,-0.0175,-0.0178,-0.018,-0.0394,-0.0397,-0.04,-0.0518,-0.0519,-0.0519,-0.052,-0.0743,-0.075,-0.0757,0,0,0,0,0,0,0,0,0,0,0,0,0,-0.0032,0.013,-0.0174,-0.0265,-0.0276,-0.0393,-0.0397,-0.04,-0.0518,-0.0519,-0.0519,-0.052,-0.0741,-0.0749,-0.0758,-0.0802,0,0,-0.0784,-0.0788,0,0,0,0,0,0,0,0,-0.0022,-0.0043,-0.0249,-0.0259,-0.0271,-0.0429,-0.037,-0.0535,-0.0518,-0.0426,-0.0519,-0.052,-0.064,-0.0657,-0.0697,-0.0813,-0.0822,-0.0785,-0.079,-0.0794,-0.0796,0,0,0,0,0,0,0,-0.001,-0.0035,-0.0262,-0.0252,-0.0265,-0.0296,-0.0321,-0.0402,-0.0528,-0.0434,-0.0444,-0.0468,-0.0646,-0.0688,-0.0703,-0.0826,-0.0785,-0.0792,-0.0798,-0.0801,-0.0992,-0.0992,0,0,0,0,0,0,0.0016,-0.0024,-0.0255,-0.0268,-0.0145,-0.0302,-0.0329,-0.0378,-0.0527,-0.0551,-0.0467,-0.0472,-0.0673,-0.0693,-0.0712,-0.0775,-0.0794,-0.0802,-0.0807,-0.0992,-0.0992,-0.0992,0,0,0,0,0,0,0.0023,-0.0003,-0.0246,-0.0149,-0.0182,-0.0307,-0.0361,-0.0382,-0.0425,-0.0552,-0.0576,-0.0487,-0.0675,-0.0699,-0.0779,-0.0784,-0.0806,-0.0814,-0.0992,-0.0992,-0.0992,-0.09,0,0,0,0,0,0,0.0033,0.0,-0.0017,-0.0148,-0.0187,-0.0308,-0.0361,-0.0386,-0.0439,-0.0448,-0.0577,-0.0599,-0.0677,-0.0766,-0.0788,-0.0797,-0.082,-0.0992,-0.0992,-0.0992,-0.0903,-0.0897,-0.0892,0,0,0,0,0,0.0044,0.0018,-0.0017,-0.0044,-0.021,-0.0308,-0.0331,-0.0419,-0.0439,-0.0458,-0.054,-0.0595,-0.078,-0.0773,-0.0799,-0.081,-0.0993,-0.0992,-0.0992,-0.0906,-0.0898,-0.0892,0,0,0,0,0,0,0.0153,-0.0001,-0.0041,-0.0111,-0.0196,-0.0328,-0.0354,-0.0408,-0.0489,-0.0494,-0.0602,-0.063,-0.07,-0.0764,-0.0753,-0.0863,-0.0892,-0.0897,-0.0818,-0.0812,-0.0806,-0.0789,-0.0827,0,0,0,0,0,0.0168,0.0102,-0.0028,-0.0077,-0.0118,-0.0228,-0.0274,-0.0336,-0.0428,-0.0465,-0.0553,-0.0642,-0.0721,-0.077,-0.0849,-0.0914,-0.0945,-0.0935,-0.0929,-0.0923,-0.0926,-0.0968,-0.0965,-0.0991,-0.0991,-0.0992,0,0,0.02,0.0108,0.0074,-0.0058,-0.0131,-0.0198,-0.0258,-0.0326,-0.0377,-0.0476,-0.0557,-0.0625,-0.0731,-0.0804,-0.084,-0.0859,-0.0926,-0.0923,-0.0918,-0.0924,-0.0967,-0.0964,-0.0962,-0.0991,-0.0991,-0.0991,0,0,0.0224,0.0149,0.0099,0.0026,-0.0084,-0.0158,-0.017,-0.0295,-0.0344,-0.0427,-0.0503,-0.0567,-0.0699,-0.0773,-0.0827,-0.0834,-0.0888,-0.0857,-0.0826,-0.0865,-0.0863,-0.0862,-0.0866,-0.0866,-0.086,-0.086,-0.086,0,0.0278,0.0175,0.008,0.0016,-0.0041,-0.0134,-0.0186,-0.0252,-0.0382,-0.042,-0.0439,-0.0609,-0.0687,-0.0779,-0.0781,-0.0822,-0.084,-0.0843,-0.0856,-0.0855,-0.0856,-0.0861,-0.0862,-0.0855,-0.0856,-0.0856,-0.0857,0,0.0246,0.0175,0.0147,0.0024,-0.0036,-0.0094,-0.0199,-0.0249,-0.0306,-0.0378,-0.0463,-0.056,-0.0662,-0.0689,-0.0745,-0.079,-0.0799,-0.0835,-0.0867,-0.0847,-0.0854,-0.0856,-0.0849,-0.0851,-0.0852,-0.0853,0,0,0.0334,0.0156,0.0148,0.009,-0.004,-0.0098,-0.0161,-0.0261,-0.0302,-0.0389,-0.0446,-0.0558,-0.0594,-0.0656,-0.0721,-0.0755,-0.0757,-0.0789,-0.0793,-0.078,-0.0816,-0.0787,-0.0787,-0.0794,-0.0795,-0.0796,-0.0807,0,0.0339,0.0222,0.0134,0.005,-0.0018,-0.0109,-0.0165,-0.0252,-0.0322,-0.0391,-0.047,-0.0547,-0.0588,-0.0626,-0.0664,-0.0748,-0.0766,-0.0749,-0.085,-0.0852,-0.082,-0.0791,-0.076,-0.0766,-0.081,-0.0811,-0.0811,0,0.0331,0.0246,0.0155,0.003,-0.0002,-0.005,-0.015,-0.0215,-0.0316,-0.0365,-0.0436,-0.0504,-0.0577,-0.0603,-0.0707,-0.0694,-0.0741,-0.0789,-0.0791,-0.0804,-0.0829,-0.0803,-0.077,-0.0771,-0.0816,-0.0815,-0.0815,0,0.0404,0.0266,0.0194,0.0146,-0.0001,-0.0034,-0.0097,-0.0199,-0.0254,-0.0342,-0.0379,-0.0474,-0.0527,-0.06,-0.0693,-0.0703,-0.0788,-0.0821,-0.0832,-0.0829,-0.0844,-0.0842,-0.0819,-0.0874,-0.0874,-0.0874,-0.0874,0,0.0419,0.0367,0.0224,0.018,0.0118,0.0015,-0.0044,-0.0116,-0.0206,-0.0268,-0.0353,-0.0409,-0.0529,-0.06,-0.0674,-0.0749,-0.0772,-0.0815,-0.0834,-0.0807,-0.0802,-0.0839,-0.0841,-0.0874,-0.0874,-0.0874,-0.0874,0,0.0492,0.0394,0.0308,0.0174,0.0139,0.0099,-0.0016,-0.0064,-0.0141,-0.0218,-0.0242,-0.0362,-0.045,-0.0551,-0.0673,-0.0723,-0.0793,-0.0821,-0.0759,-0.0769,-0.0775,-0.0773,-0.0774,-0.0781,-0.083,-0.083,-0.0829,0,0.0509,0.0466,0.0327,0.028,0.0218,0.0144,0.0086,-0.0018,-0.0074,-0.0195,-0.0229,-0.0324,-0.0406,-0.0544,-0.0642,-0.0737,-0.0768,-0.0762,-0.0782,-0.0755,-0.0769,-0.0765,-0.0771,-0.0755,-0.0754,-0.0754,-0.0753,0,0.0548,0.0501,0.0422,0.0326,0.026,0.0179,0.0094,0.006,-0.0062,-0.0122,-0.0214,-0.0277,-0.0403,-0.0497,-0.0604,-0.0672,-0.0733,-0.0746,-0.0754,-0.0727,-0.0689,-0.071,-0.0743,-0.0745,-0.0746,-0.0746,-0.0747,-0.0747,0.0593,0.055,0.0445,0.0359,0.0283,0.0205,0.0153,0.0069,-0.0009,-0.0119,-0.0177,-0.0268,-0.0372,-0.0523,-0.0589,-0.0663,-0.0683,-0.0694,-0.0697,-0.0698,-0.0691,-0.0677,-0.0683,-0.0683,-0.0684,-0.0684,-0.0684,0,0.0628,0.0555,0.0477,0.036,0.0292,0.0239,0.0142,0.0088,0.0009,-0.0083,-0.0162,-0.027,-0.0363,-0.047,-0.057,-0.0609,-0.064,-0.0632,-0.063,-0.0645,-0.0666,-0.065,-0.0605,-0.0605,-0.0605,-0.0605,-0.0605,-0.0605,0.0638,0.0563,0.0502,0.0387,0.0313,0.0223,0.0172,0.0098,0.0024,-0.0091,-0.0169,-0.0239,-0.0338,-0.0446,-0.0535,-0.0564,-0.0597,-0.0581,-0.0619,-0.0636,-0.0643,-0.0649,-0.0634,-0.0587,-0.0587,-0.0591,-0.0591,-0.0591]}]]